Theta_e
303 298 304 309 310 311 312 314 316 316 317 318 321 323 324 326 325 324 324 325 325 324 328 325 324 324 323 320 320 321 333 333 332 332 331 327 330 328 328 328 330 330 331 334 337
307 302 299 307 309 310 311 313 317 315 316 317 318 320 322 323 323 321 323 324 326 323 321 327 320 322 321 320 320 322 333 333 329 329 329 328 329 329 330 329 332 332 328 335 334
308 306 302 300 307 309 310 312 314 315 315 316 317 318 319 322 321 322 323 323 321 325 321 322 323 320 320 319 319 321 327 324 325 324 327 328 328 330 331 330 331 330 332 336 336
307 308 306 302 304 309 310 311 313 315 315 315 315 317 318 319 323 319 318 323 321 322 321 319 321 320 322 320 318 322 322 323 324 323 326 328 329 330 331 331 330 332 331 334 336
305 307 307 306 300 308 310 310 313 316 314 310 315 317 317 319 320 319 317 317 322 320 322 321 319 319 321 322 319 321 320 323 322 322 323 326 328 330 331 327 329 330 327 334 335
303 305 307 306 301 307 309 311 312 316 314 311 306 312 316 318 318 320 320 316 318 320 321 321 321 320 318 318 320 318 320 322 322 322 322 326 325 327 330 326 328 330 328 331 333
301 304 306 307 303 303 309 310 312 316 314 311 308 309 314 318 317 320 319 319 315 317 318 322 321 318 319 317 317 316 320 320 322 322 323 324 327 328 324 326 330 332 333 333 333
300 304 305 307 305 300 306 310 312 314 315 313 312 310 309 312 312 313 317 317 316 314 317 318 319 319 317 316 317 317 318 322 319 322 320 323 332 327 322 326 329 332 332 329 330
301 302 305 306 306 300 305 310 311 313 316 314 311 308 308 306 307 308 315 315 314 313 316 319 319 317 316 319 319 316 318 321 318 318 321 324 329 320 321 325 328 330 332 332 332
300 301 305 306 305 302 305 310 312 313 315 313 311 308 307 307 305 306 312 315 315 316 321 320 318 320 316 319 324 319 318 317 318 315 320 322 325 317 316 320 325 327 328 330 330
300 306 305 306 303 304 307 310 311 312 313 311 310 310 307 308 306 305 311 317 316 319 319 318 321 321 319 317 315 317 316 317 316 312 316 320 321 322 319 318 318 320 323 324 326
303 306 306 306 302 304 307 309 311 312 312 312 311 311 309 309 308 307 312 316 318 315 318 318 318 318 318 315 314 315 316 315 312 312 314 314 316 316 314 315 317 319 319 318 321
305 306 305 303 301 304 307 309 310 311 309 310 310 311 310 310 309 310 315 315 316 317 316 315 314 316 317 316 316 314 316 314 314 311 310 312 316 315 315 312 313 313 314 315 317
305 305 303 300 301 304 307 308 310 310 310 308 310 311 310 311 310 311 314 312 315 314 314 313 312 315 316 317 317 317 312 313 312 315 317 311 320 318 312 311 309 310 312 313 314
305 305 303 301 301 304 306 308 308 308 314 310 310 310 311 311 310 313 312 311 313 315 314 311 312 315 315 314 315 316 312 314 313 316 315 314 314 315 309 310 311 310 310 310 310
305 305 301 301 303 305 307 307 306 310 314 310 310 311 311 310 311 313 313 312 312 313 309 311 310 312 312 312 314 311 313 313 314 314 315 313 311 314 312 310 309 308 308 307 308
305 304 301 302 303 306 306 307 308 311 305 308 311 311 309 309 312 312 312 313 313 312 311 312 313 311 311 313 312 314 312 316 315 314 311 309 310 311 309 308 308 309 307 307 309
304 302 301 302 305 306 305 308 308 305 306 305 305 312 312 309 310 312 312 312 312 311 312 311 311 313 312 311 314 314 309 311 309 310 309 309 310 309 310 309 309 308 308 309 310
302 303 303 303 304 305 303 307 305 305 303 305 307 312 311 310 310 311 312 312 312 311 314 313 312 312 312 312 312 313 311 308 309 304 312 310 310 310 309 310 309 309 308 309 309
301 302 302 302 303 303 304 303 302 302 302 304 306 306 307 305 312 313 313 304 308 310 309 312 313 311 312 312 312 313 310 310 312 311 307 307 308 308 310 310 310 309 309 308 309
301 301 301 302 302 300 302 302 300 300 302 304 305 305 305 306 306 308 307 305 305 307 310 310 311 312 313 313 312 312 312 312 310 311 310 308 307 310 310 309 309 309 308 309 310
301 302 301 300 299 296 300 298 299 300 300 303 303 303 305 305 305 307 307 306 303 305 310 307 312 313 313 310 310 311 312 312 310 312 309 310 309 307 309 308 309 309 308 309 309
300 299 299 299 301 297 295 297 298 300 301 302 303 303 303 304 305 305 305 303 304 305 306 305 312 314 313 311 309 313 313 312 312 311 314 313 311 307 307 307 307 306 308 309 309
300 302 298 297 293 296 296 296 299 298 299 300 302 302 303 304 303 304 305 303 304 303 303 305 309 311 313 311 311 314 313 313 313 316 314 313 312 311 310 310 309 308 309 309 309
298 293 293 299 296 293 295 295 297 298 299 298 300 301 301 303 303 303 304 302 303 303 304 306 308 309 308 308 310 310 311 313 315 315 315 314 313 313 312 312 311 311 311 310 310
298 295 292 293 292 296 294 296 297 295 297 299 299 300 301 301 299 301 301 300 302 302 304 304 308 307 307 307 309 310 310 309 309 312 314 314 314 313 312 311 310 309 309 309 309
297 297 297 294 293 297 296 295 297 296 295 298 298 298 298 298 297 298 299 299 301 301 301 302 306 305 307 305 307 307 305 306 309 310 310 311 311 310 310 309 309 309 308 308 308
Wind_Speed
11 12 18 15 13 13 13 11 12 13 21 29 5 10 14 17 9 7 8 5 8 2 17 5 2 5 6 3 3 3 4 8 10 12 9 15 10 8 5 11 6 7 5 10 23
12 10 14 18 15 14 13 15 13 12 13 20 25 18 9 14 10 6 6 7 11 1 6 8 10 10 1 3 3 1 4 8 4 7 11 19 12 15 8 11 5 7 9 19 26
15 12 10 15 17 15 13 15 13 13 10 16 19 29 23 9 7 6 12 11 6 7 5 3 6 10 4 4 7 3 1 2 3 2 10 19 12 8 11 9 10 14 15 24 26
10 15 12 10 17 16 14 14 11 11 9 10 20 24 16 13 4 5 8 13 7 6 7 3 9 12 6 3 4 2 4 2 3 2 8 12 13 9 13 4 8 9 17 25 25
14 12 15 13 14 15 14 15 13 15 11 8 16 18 17 11 8 5 3 5 14 14 12 3 2 3 3 3 2 5 3 5 4 4 3 10 7 6 11 4 10 12 17 23 21
15 14 13 14 12 16 15 14 13 13 13 13 10 14 20 11 10 18 10 1 8 10 16 14 3 7 4 1 4 4 4 3 4 5 4 7 4 4 8 6 7 15 19 22 22
12 12 14 15 11 16 15 17 14 12 16 14 13 13 14 23 15 11 11 11 8 14 19 21 16 10 6 4 4 5 1 2 3 2 2 6 3 9 4 10 7 13 15 18 19
13 11 14 14 14 13 15 13 16 12 17 15 13 13 3 17 12 15 18 18 12 10 14 19 19 14 7 12 6 6 4 5 2 0 1 4 13 8 5 11 11 12 14 19 20
14 11 13 14 14 11 17 13 14 13 14 18 16 10 4 13 22 14 17 15 14 15 14 16 16 8 8 8 5 3 6 8 3 3 1 6 5 5 6 6 12 12 15 16 16
12 10 11 14 13 11 16 13 13 12 20 20 11 5 10 10 18 25 17 15 11 15 14 9 6 5 3 9 12 8 6 3 8 2 2 5 8 4 2 5 9 10 14 17 20
9 8 10 15 12 13 16 14 8 6 13 7 14 4 8 11 14 21 17 17 14 9 7 3 8 13 11 9 3 6 7 10 3 2 3 7 10 10 5 5 8 13 14 15 22
6 6 13 13 12 14 16 15 11 7 6 10 12 6 13 14 8 18 21 11 11 11 8 5 10 9 12 10 6 8 7 5 1 2 3 2 11 11 10 10 15 18 17 18 21
6 9 12 11 12 13 14 16 13 10 6 1 12 8 11 10 6 20 21 9 7 8 13 9 2 8 8 10 10 3 9 5 1 2 2 5 11 11 7 11 15 20 25 24 27
9 12 11 9 9 11 11 11 15 10 2 5 9 7 9 10 3 18 18 9 3 8 6 3 2 9 9 9 9 7 6 8 8 3 6 3 9 10 7 9 10 18 24 30 29
12 13 10 10 4 11 10 6 10 7 6 9 7 9 12 6 18 12 17 6 10 8 6 5 8 11 5 4 10 2 8 8 3 4 2 5 6 6 1 8 16 25 25 21 19
13 14 11 9 6 13 15 13 8 3 5 5 7 9 7 1 2 17 10 6 8 6 5 3 1 2 4 4 3 14 12 9 5 2 6 10 8 13 10 12 13 5 4 5 6
17 16 12 9 8 13 13 7 2 2 2 1 2 8 7 3 5 14 15 10 6 7 7 4 2 2 4 10 8 4 12 3 2 4 6 3 7 16 5 10 12 9 6 10 13
19 15 12 12 16 14 11 2 1 2 3 1 3 13 4 4 2 9 17 11 2 3 9 8 5 9 6 6 10 12 10 4 7 6 2 2 9 4 7 14 15 10 9 11 10
23 19 20 15 11 11 4 4 1 2 3 3 3 4 4 4 4 3 6 10 9 5 2 5 3 4 7 4 14 8 8 3 5 2 2 4 6 11 10 15 12 5 4 5 6
24 18 13 8 8 6 4 4 2 3 3 2 4 6 4 6 2 4 3 6 3 2 5 2 5 1 4 3 1 6 13 4 1 5 6 6 7 9 4 5 3 1 3 3 4
21 7 6 7 7 7 4 3 3 3 4 3 4 3 3 2 4 4 5 3 2 4 3 1 1 3 6 10 12 5 7 2 3 3 4 4 5 3 5 3 2 1 3 5 6
7 3 5 4 7 4 2 2 2 3 5 3 5 4 1 2 5 4 4 2 2 1 4 5 2 4 7 2 3 12 9 9 5 5 3 2 7 5 4 4 4 3 3 7 5
6 5 6 4 3 3 2 2 5 5 6 4 4 2 1 4 5 3 1 1 2 2 3 0 3 4 4 2 1 8 9 15 3 1 10 6 6 3 3 8 8 8 10 6 5
5 2 6 11 8 5 4 3 3 5 4 5 3 2 2 5 7 4 4 2 3 4 5 6 2 4 3 3 2 8 11 13 14 7 12 13 20 7 3 6 6 5 8 11 13
4 3 3 3 6 4 2 2 2 3 4 7 4 5 3 3 3 4 4 3 4 2 3 0 3 1 2 4 5 3 3 10 16 20 11 19 20 19 15 16 23 24 25 25 34
4 7 7 5 1 2 5 3 2 2 3 3 5 4 6 4 4 2 1 2 3 3 2 3 4 1 2 1 2 4 12 6 9 14 16 21 23 21 29 27 22 21 22 31 35
13 15 6 3 2 1 1 2 3 3 6 5 3 3 6 5 2 1 2 1 3 2 1 1 1 3 2 2 3 6 12 14 12 12 12 15 21 20 20 21 24 23 22 31 36
Wind_Direction
279 262 241 240 241 250 278 280 264 266 250 243 275 225 177 173 163 207 202 180 186 38 202 225 84 323 306 359 60 136 193 186 171 176 151 163 172 162 171 144 158 181 163 156 164
272 270 248 243 234 241 254 272 264 251 248 253 245 261 183 146 165 222 210 142 203 37 37 237 36 3 253 344 14 287 214 178 153 157 169 169 181 159 162 157 171 174 174 154 169
259 269 257 242 239 228 239 266 275 247 232 245 228 246 255 302 271 218 203 210 193 211 38 90 119 359 322 23 4 3 80 71 103 111 175 164 164 170 161 183 195 184 171 168 171
278 254 261 266 234 229 221 250 264 230 221 222 233 239 255 261 218 173 193 211 223 223 230 90 42 348 350 27 342 132 58 45 10 103 162 172 158 170 186 137 180 174 176 172 178
265 265 250 255 243 231 211 230 238 222 208 205 200 212 231 224 224 184 96 207 223 196 185 116 135 144 264 273 49 42 40 53 49 123 128 154 171 184 199 170 179 180 179 181 186
261 256 251 245 254 223 218 217 223 215 198 206 212 191 210 210 248 231 222 245 199 215 188 150 176 241 195 52 49 27 42 60 57 108 117 167 138 170 199 203 181 185 187 189 192
270 255 246 237 241 224 214 211 219 208 187 193 190 185 204 209 235 244 242 249 225 197 192 193 191 199 211 101 16 44 319 84 44 34 117 149 152 219 179 198 192 192 193 197 202
277 259 241 233 223 227 213 200 215 209 193 181 180 187 217 205 178 201 209 213 216 197 188 188 191 185 178 133 53 6 288 219 132 299 70 211 213 190 183 194 196 200 205 207 211
284 261 238 225 217 223 207 208 203 219 199 174 173 172 208 198 200 188 191 190 180 188 172 167 163 149 145 155 124 101 248 235 179 352 251 209 220 163 177 205 214 210 215 220 222
282 260 239 206 207 208 198 203 195 196 186 177 173 189 216 205 188 194 187 175 159 157 148 162 134 152 148 178 204 169 184 272 223 61 275 215 227 130 152 212 226 224 224 226 227
270 262 208 190 200 197 192 182 164 188 183 155 189 188 156 162 167 178 180 170 159 158 168 167 181 198 184 193 172 154 145 201 207 45 249 239 258 241 220 265 251 244 243 240 240
244 209 180 185 195 197 195 198 199 156 141 172 183 155 153 151 130 168 171 168 174 179 145 161 214 188 170 150 131 150 170 182 140 30 258 274 265 264 244 252 246 252 250 250 251
207 179 173 182 194 199 199 199 165 142 84 326 176 142 159 160 141 171 174 162 171 160 192 200 121 148 161 166 167 187 198 177 43 91 82 303 264 252 240 244 253 252 252 252 248
184 180 176 175 181 193 192 200 186 160 95 210 165 179 171 136 93 163 172 152 139 177 150 212 116 161 174 181 188 198 187 154 139 183 257 344 279 234 251 258 251 255 248 249 252
178 175 172 171 192 170 178 141 179 157 214 152 150 167 162 178 138 174 169 157 153 144 169 148 172 150 166 199 187 158 162 145 130 204 280 198 267 237 229 258 255 247 248 253 261
171 169 164 162 156 152 139 139 110 153 203 182 150 157 128 110 118 147 159 121 118 104 64 99 89 158 130 99 146 135 103 73 72 122 250 227 230 265 218 221 245 257 259 241 282
158 157 155 146 144 153 152 121 75 235 320 107 131 138 145 150 117 165 167 150 151 141 164 137 114 110 137 109 137 192 157 124 182 192 253 149 212 251 286 248 249 282 301 299 299
146 146 144 143 140 142 153 135 66 335 344 335 10 142 133 131 20 150 161 167 147 110 154 165 186 173 178 181 174 185 182 180 206 207 236 136 232 255 261 267 269 272 282 296 306
142 130 119 129 146 151 135 77 81 346 335 13 79 45 68 55 122 90 154 170 188 201 131 161 171 181 180 150 153 174 210 91 101 47 253 212 267 257 262 266 265 281 274 274 317
147 126 105 123 143 128 71 92 106 360 329 329 77 31 72 7 97 115 113 356 6 341 342 136 121 122 159 144 113 198 144 145 180 203 239 224 266 247 228 230 246 50 359 295 270
131 82 87 103 124 65 88 86 104 48 14 15 72 100 93 89 41 58 36 17 346 2 196 58 13 80 152 211 188 159 182 173 156 198 231 267 248 226 230 231 258 335 339 340 341
90 67 130 66 54 36 69 52 9 34 42 75 94 44 176 113 68 85 94 39 351 124 88 9 72 165 185 46 301 221 211 187 198 187 242 297 254 168 192 130 136 137 342 329 320
84 86 41 6 107 90 19 40 51 23 27 36 70 19 338 85 104 122 132 41 29 46 116 42 162 144 168 218 218 214 206 215 196 123 210 210 255 83 251 270 273 291 304 295 257
102 92 38 58 70 110 137 41 84 44 51 46 79 30 41 65 28 121 98 82 22 36 171 125 51 23 278 21 327 202 200 212 209 221 238 234 265 230 227 294 279 278 282 292 290
67 77 80 61 32 77 70 108 86 58 69 38 72 59 42 89 58 63 91 119 72 61 267 270 133 134 84 5 330 338 198 211 216 233 240 261 267 276 279 277 278 280 284 291 291
116 134 86 90 40 64 9 29 82 104 18 25 95 64 49 74 57 118 96 69 64 66 3 356 142 272 122 246 76 315 288 260 251 260 263 268 274 279 284 283 275 273 279 277 278
112 121 112 28 32 75 39 163 95 109 29 43 63 60 67 67 53 346 260 149 136 122 92 47 126 149 170 319 211 265 233 229 238 224 231 249 261 280 285 273 268 277 279 271 279